Location: Bergheim
(50.9593°N, 6.6400°E)
Time: 09:35:45
(UTC+02:00)

ISS - Pass Details

Date: 23 May 2021
Orbit: 417 x 422 km, 51.6° (Epoch: 13 June)

Event Time Altitude Azimuth Distance (km) Brightness Sun altitude
Rises 22:08:38 0° 270° (W) 2,364 0.8 -5.8°
Reaches altitude 10° 22:10:44 10° 272° (W) 1,501 -0.2 -6.0°
Maximum altitude 22:14:06 77° 358° (N) 436 -3.6 -6.4°
Drops below altitude 10° 22:17:29 10° 86° (E) 1,504 -1.3 -6.8°
Enters shadow 22:19:30 - 88° (E) 2,332 -0.4 -7.0°
